Flag for Germany Weather past 2 weeks in Wesel, North Rhine-Westphalia, Germany

61 °F

Partly sunny.

Feels Like: 61 °F
Forecast: 53 / 58 °F
Wind: 13 mph from Southwest

Location: Niederrhein

Current Time: Oct 7, 2015 at 12:41:02 PM

Latest Report: Oct 7, 2015 at 11:50 AM

Visibility: N/A

Pressure: 29.80 "Hg

Humidity: 88%

Dew point: 57 °F

Location of WeselLocation

Historic Weather in Wesel — Graph


Wesel temperature yesterday

Maximum temperature yesterday: 66 °F (at 2:20 PM)
Minimum temperature yesterday: 57 °F (at 4:50 AM)
Average temperature yesterday: 62 °F

Past Weeks' High & Low Weather Summary

High66 °F (Oct 6, 2:20 PM)100% (Sep 22, 6:20 PM)30.66 "Hg (Sep 22, 6:20 PM)
Low39 °F (Oct 2, 7:50 AM)43% (Oct 2, 3:20 PM)29.50 "Hg (Sep 22, 3:50 PM)
Average56 °F82%30.15 "Hg
* Reported Sep 22 11:50 AM — Oct 7 11:20 AM, Wesel, Weather by CustomWeather, © 2015

Note: Actual official high and low records may vary slightly from our data, if they occured in-between our weather recording intervals... More about our weather records


Wesel weather history for previous 24 hours

Time TempWeatherWind HumidityBarometerVisibility
11:20 AM
Wed, Oct 7
61 °FPartly sunny.12 mph94%29.80 "HgN/A
10:50 AM61 °FPartly sunny.10 mph94%29.80 "HgN/A
10:20 AM59 °FPartly sunny.8 mph100%29.80 "HgN/A
9:50 AM59 °FPartly sunny.7 mph100%29.77 "HgN/A
9:20 AM59 °FPassing clouds.8 mph100%29.77 "Hg6 mi
8:50 AM59 °FPassing clouds.9 mph100%29.74 "HgN/A
7:50 AM57 °FPassing clouds.7 mph100%29.74 "HgN/A
7:20 AM57 °FClear.6 mph100%29.71 "Hg10 mi
6:50 AM57 °FClear.7 mph100%29.71 "Hg10 mi
6:20 AM57 °FClear.7 mph100%29.71 "Hg10 mi
5:50 AM57 °FClear.7 mph100%29.71 "Hg10 mi
5:20 AM57 °FClear.6 mph100%29.71 "Hg10 mi
4:50 AM57 °FClear.6 mph100%29.68 "Hg10 mi
11:50 PM
Tue, Oct 6
63 °FClear.8 mph94%29.65 "Hg10 mi
11:20 PM63 °FPassing clouds.7 mph94%29.62 "HgN/A
10:50 PM63 °FClear.8 mph94%29.62 "Hg10 mi
10:20 PM61 °FClear.7 mph100%29.62 "Hg10 mi
9:50 PM61 °FClear.6 mph100%29.62 "Hg10 mi
9:20 PM61 °FClear.6 mph100%29.62 "Hg10 mi
8:50 PM63 °FSunny.6 mph94%29.62 "Hg10 mi
8:20 PM63 °FSunny.7 mph94%29.62 "Hg10 mi
7:50 PM63 °FSunny.8 mph100%29.62 "Hg10 mi
7:20 PM64 °FScattered clouds.7 mph94%29.59 "HgN/A
6:50 PM64 °FSunny.7 mph94%29.59 "Hg10 mi
6:20 PM66 °FScattered clouds.5 mph94%29.59 "HgN/A
5:50 PM66 °FScattered clouds.5 mph94%29.59 "HgN/A
5:20 PM66 °FScattered clouds.3 mph94%29.56 "HgN/A
4:50 PM64 °FScattered showers. Scattered clouds.2 mph100%29.56 "HgN/A
4:20 PM64 °FSprinkles. Partly sunny.2 mph100%29.59 "Hg5 mi
3:50 PM66 °FPartly sunny.6 mph94%29.59 "HgN/A
3:20 PM66 °FPartly sunny.5 mph88%29.59 "HgN/A
2:50 PM66 °FPartly sunny.6 mph94%29.59 "HgN/A
2:20 PM66 °FScattered clouds.6 mph88%29.59 "HgN/A
1:50 PM63 °FPartly sunny.5 mph100%29.62 "HgN/A
1:20 PM63 °FOvercast.6 mph100%29.62 "HgN/A
12:50 PM63 °FPartly sunny.6 mph94%29.62 "HgN/A
12:20 PM63 °FPartly sunny.9 mph94%29.62 "HgN/A
Weather by CustomWeather, © 2015

See weather overviewHow to use our weather pages